Zurück zum Katalog

STARLINK-30259

AktivKommunikationVLEO
NORAD 57521·PAYLOAD·🇺🇸 United States

Gestartet Aug 8, 2023 von Vandenberg Space Force Base

Loading…

Nächste Überflüge (nächste 24 Stunden)

TLE

AktuellSource: CelesTrak SupGP

Epoche: Sep 14, 2026, 21:13 UTC

1 57521C 23115A   26257.88451389  .00013349  00000+0  48356-3 0  2575
2 57521  43.0014  13.1703 0001665 261.0446 172.9686 15.27566666    10

Verfolge STARLINK-30259 in Echtzeit mit AllMySat

Download on the App Store